Weather History for KUKF - January, 2013

Change the Weather History Date:

Wednesday, January 16, 2013

  Actual Average Record
Temperature  
Mean Temperature 42 °F -  
Max Temperature 48 °F 47 °F 66 °F (1990)
Min Temperature 37 °F 20 °F 2 °F (1972)
Degree Days  
Heating Degree Days 22    
Moisture  
Dew Point 42 °F    
Average Humidity 99    
Maximum Humidity 100    
Minimum Humidity 87    
Precipitation  
Precipitation 0.47 in - - ()
Sea Level Pressure  
Sea Level Pressure 30.05 in    
Wind  
Wind Speed 1 mph (South)    
Max Wind Speed 5 mph    
Max Gust Speed -    
Visibility 8 miles    
Events Rain    
Averages and records for this station are not official NWS values.
T = Trace of Precipitation, MM = Missing Value Source: NWS Daily Summary

Daily Weather History Graph

Daily Weather History Graph

Search for Another Location

Airport or City:

Trip Planner

Search our weather history database for the weather conditions in past years. The results will help you decide how hot, cold, wet, or windy it might be!

Date:

Astronomy

Jan. 16, 2013 Rise Set
Actual Time 7:34 AM EST 5:34 PM EST
Civil Twilight 7:06 AM EST 6:02 PM EST
Nautical Twilight 6:34 AM EST 6:33 PM EST
Astronomical Twilight 6:04 AM EST 7:04 PM EST
Moon 10:21 AM EST (1/16) 11:12 PM EST (1/16)
Length of Visible Light 10h 55m
Length of Day
10h 00m
Waxing Crescent, 28% of the Moon is Illuminated
Jan 16
Waxing Crescent
Jan 18
First Quarter
Jan 26
Full
Feb 3
Last Quarter
Feb 10
New

Hourly Weather History & Observations

Time (EST) Temp. Windchill Dew Point Humidity Pressure Visibility Wind Dir Wind Speed Gust Speed Precip Events Conditions
12:15 AM 37.4 °F 34.9 °F 37.4 °F 100% 30.12 in 10.0 mi East 3.5 mph - 0.01 in   Drizzle
12:35 AM 37.4 °F - 37.4 °F 100% 30.12 in 7.0 mi Calm Calm - 0.01 in   Drizzle
1:15 AM 37.4 °F - 37.4 °F 100% 30.11 in 5.0 mi Calm Calm - 0.01 in   Heavy Drizzle
1:35 AM 37.4 °F - 37.4 °F 100% 30.11 in 7.0 mi Calm Calm - 0.01 in   Drizzle
1:55 AM 37.4 °F - 37.4 °F 100% 30.10 in 5.0 mi Calm Calm - 0.02 in   Heavy Drizzle
2:35 AM 37.4 °F - 37.4 °F 100% 30.10 in 7.0 mi Calm Calm - 0.01 in   Drizzle
2:55 AM 37.4 °F - 37.4 °F 100% 30.11 in 5.0 mi Calm Calm - 0.01 in   Drizzle
3:15 AM 37.4 °F 34.9 °F 37.4 °F 100% 30.09 in 5.0 mi East 3.5 mph - 0.01 in Rain Rain
3:35 AM 37.4 °F 34.9 °F 37.4 °F 100% 30.08 in 5.0 mi ESE 3.5 mph - 0.04 in Rain Heavy Rain
3:55 AM 37.4 °F - 37.4 °F 100% 30.06 in 5.0 mi Calm Calm - 0.06 in   Drizzle
4:15 AM 37.4 °F - 37.4 °F 100% 30.06 in 5.0 mi Calm Calm - N/A   Drizzle
4:35 AM 37.4 °F - 37.4 °F 100% 30.05 in 4.0 mi Calm Calm - 0.01 in Rain Heavy Rain
4:55 AM 37.4 °F - 37.4 °F 100% 30.05 in 5.0 mi Calm Calm - 0.02 in   Overcast
5:15 AM 37.4 °F - 37.4 °F 100% 30.05 in 4.0 mi Calm Calm - N/A Rain Heavy Rain
5:35 AM 37.4 °F - 37.4 °F 100% 30.04 in 4.0 mi Calm Calm - 0.03 in Rain Heavy Rain
5:55 AM 37.4 °F - 37.4 °F 100% 30.05 in 7.0 mi Calm Calm - 0.04 in   Overcast
6:15 AM 37.4 °F - 37.4 °F 100% 30.05 in 7.0 mi Calm Calm - N/A   Overcast
7:15 AM 37.4 °F - 37.4 °F 100% 30.05 in 10.0 mi Calm Calm - N/A   Overcast
7:35 AM 37.4 °F - 37.4 °F 100% 30.05 in 10.0 mi Calm Calm - N/A   Overcast
7:55 AM 39.2 °F - 37.4 °F 93% 30.06 in 10.0 mi Calm Calm - N/A   Drizzle
8:15 AM 39.2 °F - 37.4 °F 93% 30.07 in 7.0 mi Calm Calm - 0.01 in   Drizzle
8:35 AM 39.2 °F - 39.2 °F 100% 30.08 in 3.0 mi Calm Calm - 0.06 in Rain Rain
8:55 AM 39.2 °F - 39.2 °F 100% 30.09 in 2.0 mi Calm Calm - 0.14 in Rain Rain
9:15 AM 39.2 °F - 39.2 °F 100% 30.11 in 4.0 mi Calm Calm - 0.02 in Rain Light Rain
9:35 AM 39.2 °F - 39.2 °F 100% 30.10 in 3.0 mi Calm Calm - 0.09 in Rain Rain
10:15 AM 41.0 °F - 41.0 °F 100% 30.09 in 5.0 mi Calm Calm - 0.02 in Rain Light Rain
10:35 AM 41.0 °F - 41.0 °F 100% 30.09 in 10.0 mi Calm Calm - 0.03 in Rain Light Rain
10:55 AM 41.0 °F - 41.0 °F 100% 30.09 in 10.0 mi Calm Calm - 0.03 in   Overcast
11:15 AM 41.0 °F 39.0 °F 41.0 °F 100% 30.09 in 10.0 mi WSW 3.5 mph - N/A   Overcast
11:35 AM 41.0 °F 39.0 °F 41.0 °F 100% 30.06 in 10.0 mi ESE 3.5 mph - N/A   Overcast
11:55 AM 42.8 °F - 42.8 °F 100% 30.04 in 10.0 mi Calm Calm - N/A   Overcast
12:15 PM 42.8 °F - 42.8 °F 100% 30.03 in 10.0 mi Calm Calm - N/A   Overcast
12:35 PM 42.8 °F - 42.8 °F 100% 30.03 in 10.0 mi Calm Calm - N/A   Overcast
12:55 PM 44.6 °F - 42.8 °F 93% 30.02 in 10.0 mi Calm Calm - N/A   Overcast
1:15 PM 44.6 °F - 42.8 °F 93% 30.02 in 10.0 mi Calm Calm - N/A   Overcast
1:35 PM 44.6 °F - 42.8 °F 93% 30.01 in 10.0 mi Calm Calm - N/A   Overcast
1:55 PM 44.6 °F - 44.6 °F 100% 30.01 in 10.0 mi Calm Calm - N/A   Overcast
2:15 PM 44.6 °F - 44.6 °F 100% 30.02 in 10.0 mi Calm Calm - N/A   Overcast
2:55 PM 48.2 °F - 44.6 °F 87% 30.01 in 10.0 mi SSW 3.5 mph - N/A   Overcast
3:15 PM 48.2 °F - 46.4 °F 93% 30.02 in 10.0 mi Calm Calm - N/A   Overcast
3:55 PM 46.4 °F 44.3 °F 44.6 °F 93% 30.03 in 10.0 mi SSW 4.6 mph - N/A   Overcast
4:15 PM 46.4 °F 44.3 °F 46.4 °F 100% 30.04 in 10.0 mi SSW 4.6 mph - N/A   Overcast
4:35 PM 46.4 °F 44.3 °F 46.4 °F 100% 30.03 in 10.0 mi SW 4.6 mph - N/A Rain Light Rain
4:55 PM 46.4 °F - 46.4 °F 100% 30.04 in 10.0 mi Calm Calm - N/A   Overcast
5:15 PM 46.4 °F - 46.4 °F 100% 30.04 in 10.0 mi Calm Calm - N/A   Overcast
5:35 PM 46.4 °F - 46.4 °F 100% 30.03 in 10.0 mi Calm Calm - N/A   Overcast
5:55 PM 46.4 °F 45.2 °F 46.4 °F 100% 30.03 in 10.0 mi South 3.5 mph - N/A   Drizzle
6:35 PM 46.4 °F - 46.4 °F 100% 30.03 in 10.0 mi Calm Calm - N/A Rain Light Rain
6:55 PM 46.4 °F - 46.4 °F 100% 30.04 in 10.0 mi Calm Calm - N/A   Overcast
7:15 PM 46.4 °F - 46.4 °F 100% 30.04 in 10.0 mi Calm Calm - N/A   Overcast
7:35 PM 46.4 °F - 46.4 °F 100% 30.03 in 10.0 mi Calm Calm - N/A   Overcast
7:55 PM 46.4 °F - 46.4 °F 100% 30.04 in 7.0 mi Calm Calm - N/A   Overcast
8:15 PM 46.4 °F - 46.4 °F 100% 30.04 in 7.0 mi Calm Calm - N/A   Overcast
8:35 PM 46.4 °F - 46.4 °F 100% 30.04 in 10.0 mi Calm Calm - N/A   Overcast
8:55 PM 46.4 °F - 46.4 °F 100% 30.03 in 7.0 mi Calm Calm - N/A   Overcast
9:15 PM 46.4 °F - 46.4 °F 100% 30.03 in 7.0 mi Calm Calm - N/A   Overcast
9:55 PM 46.4 °F - 46.4 °F 100% 30.03 in 7.0 mi Calm Calm - N/A   Light Drizzle
10:15 PM 46.4 °F 45.2 °F 46.4 °F 100% 30.03 in 7.0 mi NNW 3.5 mph - N/A Rain Rain
10:35 PM 46.4 °F - 46.4 °F 100% 30.03 in 5.0 mi Calm Calm - 0.01 in   Overcast
10:55 PM 46.4 °F - 46.4 °F 100% 30.03 in 4.0 mi Calm Calm - 0.01 in Rain Light Rain
11:15 PM 46.4 °F - 46.4 °F 100% 30.01 in 2.5 mi Calm Calm - 0.01 in Rain Rain
11:35 PM 46.4 °F - 46.4 °F 100% 30.02 in 2.5 mi Calm Calm - 0.03 in Rain Rain
11:55 PM 46.4 °F - 46.4 °F 100% 30.03 in 3.0 mi Calm Calm - 0.05 in Rain Light Rain